#timestamp,LO_Frequency,Hit 
1500292815.4,286051016.1,N
1500292835.2,286051017.9,N
1500292855.0,286051018.3,N
1500292855.9,286051018.3,N
1500292875.8,286051015.8,N
1500292895.6,286051018.7,N
1500292915.5,286051017.5,N
1500292935.3,286051018.5,N
1500292955.1,286051017.5,N
1500292975.9,286051017.9,N
1500292995.7,286051020.4,N
1500293015.5,286051017.6,N
1500293035.4,286051020.2,N
1500293055.2,286051017.8,N
1500293075.1,286051020.1,N
1500293076.0,286051020.1,N
1500293095.8,286051019.2,N
1500293145.7,286051022.0,Y
1500293155.6,286049279.1,N
1500293175.4,286046998.8,N
1500293195.3,286046998.4,N
1500293215.1,286046999.2,N
1500293216.0,286046999.2,N
1500293235.8,286046998.4,N
1500293255.7,286046998.4,N
1500293275.5,286047000.9,N
1500293295.3,286047000.1,N
1500293315.2,286047001.0,N
1500293335.0,286047000.4,N
1500293335.9,286047000.4,N
1500293355.8,286047001.0,N
1500293375.6,286046999.7,N
1500293395.4,286047000.4,N
1500293415.3,286047000.4,N
1500293435.1,286047002.8,N
1500293455.9,286047002.4,N
1500293475.7,286047000.3,N
1500293495.5,286047002.2,N
1500293515.4,286047002.3,N
1500293535.2,286047000.0,N
1500293555.0,286047002.5,N
1500293555.9,286047002.5,N
1500293575.8,286046998.3,N
1500293595.6,286047000.6,N
1500293615.5,286047000.4,N
1500293635.3,286047000.1,N
1500293655.1,286043136.4,N
1500293675.9,286046999.8,N
1500293695.7,286047002.4,N
1500293715.5,286047002.0,N
1500293735.4,286047002.2,N
1500293755.2,286047002.6,N
1500293775.1,286047001.4,N
1500293776.0,286047001.4,N
1500293795.8,286047001.7,N
1500293815.6,286047004.3,N
1500293835.5,286047001.4,N
1500293855.3,286047002.5,N
1500293875.1,286046999.7,N
1500293895.9,286046999.8,N
1500293915.7,286047001.4,N
1500293935.6,286047001.5,N
1500293955.4,286047002.3,N
1500293975.2,286047002.2,N
1500293995.1,286047001.8,N
1500293996.0,286047001.8,N
1500294015.8,286047002.8,N
1500294035.6,286047001.4,N
1500294055.5,286047003.8,N
1500294075.3,286047004.0,N
1500294095.2,286047001.4,N
1500294115.9,286047002.9,N
1500294135.7,286047003.8,N
1500294155.6,286047003.5,N
1500294175.4,286047001.4,N
1500294195.2,286047004.0,N
1500294215.1,286047003.9,N
1500294216.0,286047003.9,N
1500294235.8,286047004.2,N
1500294255.7,286047003.8,N
1500294275.5,286047003.0,N
1500294295.3,286047001.4,N
1500294315.2,286047003.9,N
1500294335.0,286047001.3,N
1500294335.9,286047001.3,N
1500294355.8,286047001.7,N
1500294375.6,286047001.3,N
1500294395.4,286047004.3,N
1500294415.3,286047001.3,N
1500294435.1,286047001.7,N
1500294455.8,286047004.2,N
1500294475.7,286047002.1,N
1500294495.5,286047003.7,N
1500294515.4,286047004.4,N
1500294535.2,286047001.7,N
1500294555.0,286047001.4,N
1500294555.9,286047001.4,N
1500294575.8,286047002.2,N
1500294595.6,286047002.1,N
1500294615.4,286047002.5,N
1500294635.3,286047001.8,N
1500294655.1,286047001.6,N
1500294675.9,286047003.6,N
1500294695.7,286047004.2,N
1500294715.5,286047004.1,N
1500294735.4,286047001.7,N
1500294755.2,286047003.6,N
1500294775.0,286047003.0,N
1500294775.9,286047003.0,N
1500294795.8,286047003.5,N
1500294815.6,286047005.5,N
1500294835.5,286047006.0,N
1500294855.3,286047003.3,N
1500294875.1,286047005.4,N
1500294895.9,286047005.5,N
1500294915.7,286047005.5,N
1500294935.5,286047005.1,N
1500294955.4,286047006.0,N
1500294975.2,286047004.8,N
1500294995.1,286047004.5,N
1500294996.0,286047004.5,N
1500295015.8,286047004.9,N
1500295035.6,286047005.0,N
1500295055.5,286047006.9,N
1500295075.3,286047006.5,N
1500295095.1,286047006.9,N
1500295115.9,286047007.0,N
1500295135.7,286047006.5,N
1500295155.6,286047006.6,N
1500295175.4,286047004.6,N
1500295195.2,286047005.1,N
1500295215.1,286047007.3,N
1500295216.0,286047007.3,N
1500295235.8,286047007.3,N
1500295255.6,286047006.3,N
1500295275.5,286047006.2,N
1500295295.3,286047006.4,N
1500295315.2,286047008.0,N
1500295335.9,286047006.9,N
1500295355.7,286047007.3,N
1500295375.6,286047007.4,N
1500295395.4,286047006.7,N
1500295415.2,286047008.4,N
1500295435.1,286047008.2,N
1500295436.0,286047008.2,N
1500295455.8,286047008.6,N
1500295475.7,286047008.8,N
1500295495.5,286047009.6,N
1500295515.3,286047009.9,N
1500295535.2,286047007.8,N
1500295555.0,286047007.9,N
1500295555.9,286047007.9,N
1500295575.7,286047009.5,N
1500295595.6,286047007.9,N
1500295615.4,286047010.8,N
1500295635.3,286047008.5,N
1500295655.1,286047010.8,N
1500295656.0,286047010.8,N
1500295675.8,286047008.3,N
1500295695.7,286047008.6,N
1500295715.5,286047007.8,N
1500295735.3,286047008.8,N
1500295755.2,286047008.2,N
1500295775.0,286047008.9,N
1500295775.9,286047008.9,N
1500295795.8,286047008.8,N
1500295815.6,286047008.4,N
1500295835.4,286047008.0,N
1500295855.3,286047010.8,N
1500295875.1,286047010.2,N
1500295895.8,286047010.6,N
1500295915.7,286047012.3,N
1500295935.5,286047012.4,N
1500295955.4,286047009.7,N
1500295975.2,286047012.3,N
1500295995.0,286047009.7,N
1500295995.9,286047009.7,N
1500296015.8,286047012.0,N
1500296035.6,286047011.8,N
1500296055.4,286047012.1,N
1500296075.3,286047011.2,N
1500296095.1,286047011.7,N
1500296115.9,286047013.6,N
1500296135.7,286047013.5,N
1500296155.5,286047013.5,N
1500296175.4,286047011.5,N
1500296195.2,286047011.7,N
1500296215.0,286047011.7,N
1500296215.9,286047011.7,N
1500296235.8,286047011.4,N
1500296255.6,286047012.1,N
1500296275.5,286047014.0,N
1500296295.3,286047011.5,N
1500296315.1,286047011.2,N
1500296335.9,286047011.8,N
1500296355.7,286047008.5,N
1500296375.5,286047008.5,N
1500296395.4,286047007.7,N
